Terug naar catalogus

APSTAR 6C

ActiefCommunicatieGEO
NORAD 43450·PAYLOAD·🇨🇳 China

Gelanceerd May 3, 2018 vanaf Xichang Satellite Launch Center

Loading…

TLE

VersSource: Space-Track

Epoch: Sep 14, 2026, 14:26 UTC

1 43450U 18041A   26257.60170779 -.00000325  00000-0  00000+0 0  9999
2 43450   0.0607 303.3822 0001692 282.2113 118.6166  1.00273378 30709

Volg APSTAR 6C in realtime met AllMySat

Download on the App Store